Terminal Aerodrome Forecast
Issued by NWS Sterling, VA

Home | Current Version | Previous Version | Text Only | Print | Product List | Glossary On
Versions: 1 2 3 4 5 6 7 8 9 10 11 12 13 14 15 16 17 18 19 20 21 22 23 24 25 26 27 28
000
FTUS41 KLWX 261700
TAFBWI
TAF
KBWI 261735Z 2618/2724 03010G16KT 5SM -SN BR BKN009 OVC013
     FM262300 03014G22KT 6SM -SN OVC015
     FM270600 35010KT 6SM -SN OVC015
     FM270800 34010KT 3SM -SN OVC015
     FM271400 33012G20KT P6SM SCT010 OVC025
     FM271900 32013G21KT P6SM BKN045 BKN060=

USA.gov is the U.S. government's official web portal to all federal, state and local government web resources and services.